CFG249 MDPC-EDDF

Flight info

Callsign CFG249
Flight time N/A
Altitude 33000
Route CHUMA2T CHUMA Y315 KEEKA/M083F330 M597 FIVZE DCT 32N050W 39N040W 43N030W 47N020W DCT BEDRA DCT NASBA DCT GAPLI/N0478F330 DCT SIDDI DCT DAWLY DCT GIBSO L620 SAM M140 DVR UL9 KONAN DCT KOK DCT DENOX L607 GILOM M624 REMBA DCT SPI T180 NIVNU T847 IMCOM IMCOM1A
Aircraft A339/H-SADE1E2E3GHIJ3J5M1P2RWXY/LB2D1

Departure

Time 2026-05-07 18:53
Airport Punta Cana International Airport (MDPC)

Arrival

Time N/A
Airport Frankfurt Main Airport (EDDF)
Time Latitude Longitude Altitude Speed Heading
2026-05-07 18:32 18.56412 -68.36152 46 ft 0 kts 175°
2026-05-07 18:42 18.56420 -68.36153 46 ft 2 kts 175°
2026-05-07 18:42 18.56435 -68.36154 46 ft 2 kts 175°
2026-05-07 18:42 18.56450 -68.36156 46 ft 2 kts 175°
2026-05-07 18:43 18.56465 -68.36156 46 ft 2 kts 199°
2026-05-07 18:43 18.56479 -68.36148 46 ft 2 kts 225°
2026-05-07 18:43 18.56487 -68.36135 46 ft 2 kts 249°
2026-05-07 18:43 18.56490 -68.36125 46 ft 0 kts 265°
2026-05-07 18:44 18.56490 -68.36121 46 ft 0 kts 265°
2026-05-07 18:46 18.56490 -68.36127 46 ft 2 kts 265°
2026-05-07 18:46 18.56487 -68.36157 46 ft 5 kts 264°
2026-05-07 18:46 18.56482 -68.36212 46 ft 8 kts 265°
2026-05-07 18:46 18.56475 -68.36284 46 ft 10 kts 265°
2026-05-07 18:47 18.56472 -68.36362 46 ft 9 kts 283°
2026-05-07 18:47 18.56525 -68.36397 47 ft 9 kts 348°
2026-05-07 18:47 18.56556 -68.36423 47 ft 4 kts 271°
2026-05-07 18:47 18.56553 -68.36459 48 ft 7 kts 264°
2026-05-07 18:48 18.56545 -68.36550 49 ft 16 kts 264°
2026-05-07 18:48 18.56534 -68.36678 49 ft 17 kts 265°
2026-05-07 18:48 18.56524 -68.36804 51 ft 16 kts 265°
2026-05-07 18:48 18.56513 -68.36915 53 ft 14 kts 265°
2026-05-07 18:49 18.56505 -68.37022 55 ft 16 kts 265°
2026-05-07 18:49 18.56493 -68.37160 55 ft 19 kts 265°
2026-05-07 18:49 18.56481 -68.37299 58 ft 17 kts 265°
2026-05-07 18:49 18.56471 -68.37427 58 ft 17 kts 265°
2026-05-07 18:50 18.56460 -68.37550 60 ft 15 kts 264°
2026-05-07 18:50 18.56451 -68.37659 61 ft 14 kts 265°
2026-05-07 18:50 18.56465 -68.37764 60 ft 15 kts 320°
2026-05-07 18:50 18.56568 -68.37791 59 ft 12 kts 352°
2026-05-07 18:51 18.56605 -68.37782 59 ft 4 kts 55°
2026-05-07 18:51 18.56615 -68.37755 59 ft 4 kts 80°
2026-05-07 18:51 18.56619 -68.37721 59 ft 0 kts 83°
2026-05-07 18:52 18.56623 -68.37688 59 ft 24 kts 84°
2026-05-07 18:52 18.56659 -68.37273 57 ft 86 kts 85°
2026-05-07 18:52 18.56731 -68.36440 48 ft 140 kts 85°
2026-05-07 18:53 18.56838 -68.35258 68 ft 181 kts 87°
2026-05-07 18:53 18.56964 -68.33922 511 ft 184 kts 85°
2026-05-07 18:53 18.57082 -68.32569 1055 ft 187 kts 86°
2026-05-07 18:53 18.57245 -68.31233 1676 ft 185 kts 69°
2026-05-07 18:54 18.58058 -68.30228 2050 ft 190 kts 30°
2026-05-07 18:54 18.59396 -68.29930 2252 ft 207 kts 356°
2026-05-07 18:54 18.60854 -68.30196 2471 ft 220 kts 352°
2026-05-07 18:54 18.62408 -68.30507 2713 ft 233 kts 352°
2026-05-07 18:55 18.64063 -68.30825 2963 ft 247 kts 352°
2026-05-07 18:55 18.65795 -68.31145 3222 ft 261 kts 352°
2026-05-07 18:55 18.67648 -68.31481 3611 ft 270 kts 352°
2026-05-07 18:55 18.69506 -68.31818 4146 ft 273 kts 352°
2026-05-07 18:56 18.71379 -68.32128 4677 ft 274 kts 354°
2026-05-07 18:56 18.73292 -68.32398 5236 ft 276 kts 354°
2026-05-07 18:56 18.75205 -68.32664 5724 ft 278 kts 354°
2026-05-07 18:56 18.77117 -68.32931 5945 ft 279 kts 354°
2026-05-07 18:57 18.79046 -68.33199 5945 ft 278 kts 354°
2026-05-07 18:57 18.80990 -68.33469 6091 ft 283 kts 354°
2026-05-07 18:57 18.82960 -68.33745 6654 ft 284 kts 354°
2026-05-07 18:57 18.84903 -68.34017 7261 ft 283 kts 354°
2026-05-07 18:58 18.86871 -68.34292 7800 ft 284 kts 353°
2026-05-07 18:58 18.88851 -68.34567 8314 ft 286 kts 353°
2026-05-07 18:58 18.90819 -68.34843 8831 ft 287 kts 353°
2026-05-07 18:58 18.92825 -68.35123 9338 ft 289 kts 353°
2026-05-07 18:59 18.94825 -68.35402 9841 ft 290 kts 353°
2026-05-07 18:59 18.96835 -68.35683 10284 ft 294 kts 353°
2026-05-07 18:59 18.98903 -68.35971 10503 ft 307 kts 352°
2026-05-07 18:59 19.01091 -68.36279 10723 ft 319 kts 352°
2026-05-07 19:00 19.03335 -68.36593 10938 ft 332 kts 352°
2026-05-07 19:00 19.05649 -68.36917 11148 ft 344 kts 352°
2026-05-07 19:00 19.08083 -68.37258 11362 ft 356 kts 352°
2026-05-07 19:00 19.10591 -68.37608 11564 ft 367 kts 352°
2026-05-07 19:01 19.13179 -68.37971 11794 ft 378 kts 352°
2026-05-07 19:01 19.15792 -68.38337 12207 ft 383 kts 352°
2026-05-07 19:01 19.18441 -68.38697 12712 ft 384 kts 354°
2026-05-07 19:01 19.21131 -68.38520 13192 ft 387 kts 14°
2026-05-07 19:02 19.23570 -68.37379 13681 ft 391 kts 33°
2026-05-07 19:02 19.25432 -68.35628 14133 ft 394 kts 47°
2026-05-07 19:02 19.27162 -68.33530 14600 ft 396 kts 47°
2026-05-07 19:02 19.29000 -68.31335 15053 ft 398 kts 47°
2026-05-07 19:03 19.30853 -68.29137 15505 ft 401 kts 47°
2026-05-07 19:03 19.32693 -68.26956 15944 ft 403 kts 47°
2026-05-07 19:03 19.34574 -68.24732 16378 ft 406 kts 47°
2026-05-07 19:03 19.36463 -68.22498 16826 ft 408 kts 47°
2026-05-07 19:04 19.38370 -68.20241 17265 ft 410 kts 47°
2026-05-07 19:04 19.40073 -68.18222 17641 ft 412 kts 47°
2026-05-07 19:04 19.41994 -68.15945 18070 ft 414 kts 47°
2026-05-07 19:04 19.43899 -68.13687 18509 ft 415 kts 47°
2026-05-07 19:05 19.45827 -68.11402 18942 ft 417 kts 47°
2026-05-07 19:05 19.47759 -68.09112 19347 ft 419 kts 47°
2026-05-07 19:05 19.49705 -68.06805 19756 ft 420 kts 47°
2026-05-07 19:05 19.51661 -68.04485 20141 ft 422 kts 47°
2026-05-07 19:06 19.53603 -68.02179 20544 ft 423 kts 47°
2026-05-07 19:06 19.57539 -67.97508 21312 ft 426 kts 47°
2026-05-07 19:06 19.59514 -67.95163 21674 ft 427 kts 47°
2026-05-07 19:07 19.61496 -67.92808 22012 ft 429 kts 47°
2026-05-07 19:07 19.63480 -67.90449 22345 ft 430 kts 47°
2026-05-07 19:07 19.65475 -67.88077 22692 ft 432 kts 47°
2026-05-07 19:07 19.67486 -67.85680 23034 ft 433 kts 47°
2026-05-07 19:08 19.69493 -67.83290 23356 ft 435 kts 47°
2026-05-07 19:08 19.71491 -67.80908 23666 ft 437 kts 47°
2026-05-07 19:08 19.73525 -67.78484 23982 ft 439 kts 47°
2026-05-07 19:08 19.75575 -67.76042 24285 ft 442 kts 47°
2026-05-07 19:09 19.77596 -67.73633 24601 ft 443 kts 47°
2026-05-07 19:09 19.79669 -67.71161 24911 ft 445 kts 47°
2026-05-07 19:09 19.81713 -67.68722 25208 ft 447 kts 47°
2026-05-07 19:09 19.83791 -67.66239 25515 ft 449 kts 47°
2026-05-07 19:10 19.85871 -67.63752 25809 ft 451 kts 47°
2026-05-07 19:10 19.87960 -67.61254 26106 ft 452 kts 46°
2026-05-07 19:10 19.90050 -67.58753 26394 ft 454 kts 46°
2026-05-07 19:10 19.92150 -67.56243 26653 ft 456 kts 46°
2026-05-07 19:11 19.94240 -67.53738 26930 ft 458 kts 46°
2026-05-07 19:11 19.96368 -67.51187 27223 ft 459 kts 46°
2026-05-07 19:11 19.98482 -67.48653 27517 ft 460 kts 46°
2026-05-07 19:11 20.00609 -67.46107 27772 ft 462 kts 46°
2026-05-07 19:12 20.02749 -67.43551 28021 ft 464 kts 46°
2026-05-07 19:12 20.04894 -67.40985 28315 ft 465 kts 46°
2026-05-07 19:12 20.07049 -67.38406 28711 ft 463 kts 46°
2026-05-07 19:12 20.09165 -67.35867 29086 ft 461 kts 46°
2026-05-07 19:13 20.11293 -67.33315 29433 ft 460 kts 46°
2026-05-07 19:13 20.13430 -67.30751 29856 ft 458 kts 46°
2026-05-07 19:13 20.15507 -67.28253 30326 ft 454 kts 46°
2026-05-07 19:13 20.17590 -67.25749 30800 ft 448 kts 46°
2026-05-07 19:14 20.19646 -67.23277 31024 ft 444 kts 46°
2026-05-07 19:14 20.21712 -67.20791 31258 ft 444 kts 46°
2026-05-07 19:14 20.23723 -67.18369 31642 ft 441 kts 46°
2026-05-07 19:14 20.25749 -67.15929 32089 ft 437 kts 46°
2026-05-07 19:15 20.27749 -67.13517 32440 ft 435 kts 46°
2026-05-07 19:15 20.29768 -67.11085 32725 ft 434 kts 46°
2026-05-07 19:15 20.31746 -67.08702 32974 ft 433 kts 46°
2026-05-07 19:15 20.33745 -67.06297 33018 ft 432 kts 46°
2026-05-07 19:16 20.37732 -67.01482 33027 ft 430 kts 46°
2026-05-07 19:16 20.41670 -66.96711 33026 ft 431 kts 46°
2026-05-07 19:17 20.45649 -66.91895 33027 ft 431 kts 46°
2026-05-07 19:17 20.49597 -66.87112 33028 ft 432 kts 46°
2026-05-07 19:18 20.53579 -66.82290 33028 ft 432 kts 46°
2026-05-07 19:18 20.57532 -66.77498 33028 ft 432 kts 46°
2026-05-07 19:19 20.61490 -66.72696 33029 ft 430 kts 46°
2026-05-07 19:19 20.65434 -66.67902 33030 ft 430 kts 46°
2026-05-07 19:20 20.69402 -66.63075 33028 ft 431 kts 46°
2026-05-07 19:20 20.73357 -66.58267 33028 ft 430 kts 46°
2026-05-07 19:21 20.77287 -66.53480 33026 ft 430 kts 46°
2026-05-07 19:21 20.81244 -66.48656 33025 ft 431 kts 46°
2026-05-07 19:22 20.85198 -66.43834 33021 ft 431 kts 46°
2026-05-07 19:22 20.89147 -66.39014 33025 ft 430 kts 46°
2026-05-07 19:23 20.93065 -66.34227 33028 ft 431 kts 46°
2026-05-07 19:23 20.97026 -66.29382 33026 ft 432 kts 46°
2026-05-07 19:24 21.00964 -66.24558 33029 ft 431 kts 46°
2026-05-07 19:24 21.04905 -66.19730 33033 ft 431 kts 46°
2026-05-07 19:25 21.08840 -66.14903 33032 ft 430 kts 46°
2026-05-07 19:25 21.12776 -66.10066 33034 ft 431 kts 46°
2026-05-07 19:26 21.16733 -66.05199 33027 ft 433 kts 46°
2026-05-07 19:26 21.20683 -66.00338 33023 ft 432 kts 46°
2026-05-07 19:27 21.24629 -65.95475 33027 ft 431 kts 46°
2026-05-07 19:27 21.28547 -65.90642 33034 ft 433 kts 46°
2026-05-07 19:28 21.32543 -65.85798 33029 ft 433 kts 44°
2026-05-07 19:28 21.36873 -65.81319 33033 ft 432 kts 39°
2026-05-07 19:29 21.41411 -65.77103 33036 ft 431 kts 39°
2026-05-07 19:29 21.45973 -65.72883 33038 ft 431 kts 39°
2026-05-07 19:30 21.50515 -65.68681 33039 ft 432 kts 39°
2026-05-07 19:30 21.55060 -65.64468 33038 ft 431 kts 39°
2026-05-07 19:31 21.59626 -65.60231 33041 ft 431 kts 39°
2026-05-07 19:31 21.64139 -65.56045 33048 ft 431 kts 39°
2026-05-07 19:32 21.68701 -65.51804 33047 ft 432 kts 39°
2026-05-07 19:32 21.73272 -65.47551 33051 ft 432 kts 38°
2026-05-07 19:33 21.77796 -65.43343 33055 ft 431 kts 39°
2026-05-07 19:33 21.82339 -65.39105 33055 ft 431 kts 39°
2026-05-07 19:34 21.86889 -65.34860 33057 ft 430 kts 39°
2026-05-07 19:34 21.91429 -65.30622 33054 ft 432 kts 39°
2026-05-07 19:35 21.95967 -65.26380 33056 ft 431 kts 39°
2026-05-07 19:35 22.00491 -65.22142 33059 ft 430 kts 39°
2026-05-07 19:36 22.04992 -65.17911 33061 ft 430 kts 39°
2026-05-07 19:36 22.09258 -65.13425 33060 ft 431 kts 44°
2026-05-07 19:37 22.13151 -65.08496 33062 ft 434 kts 49°
2026-05-07 19:37 22.16794 -65.03250 33057 ft 436 kts 50°
2026-05-07 19:38 22.20392 -64.98008 33059 ft 436 kts 50°
2026-05-07 19:38 22.23997 -64.92746 33057 ft 434 kts 50°
2026-05-07 19:39 22.27562 -64.87535 33059 ft 435 kts 50°
2026-05-07 19:39 22.31156 -64.82272 33054 ft 436 kts 50°
2026-05-07 19:40 22.34761 -64.76994 33059 ft 436 kts 49°
2026-05-07 19:40 22.38349 -64.71734 33058 ft 436 kts 50°
2026-05-07 19:41 22.41946 -64.66457 33057 ft 436 kts 49°
2026-05-07 19:41 22.45527 -64.61193 33056 ft 437 kts 50°
2026-05-07 19:42 22.49130 -64.55896 33058 ft 436 kts 50°
2026-05-07 19:42 22.52729 -64.50599 33056 ft 437 kts 50°
2026-05-07 19:43 22.56313 -64.45316 33058 ft 436 kts 50°
2026-05-07 19:43 22.59894 -64.40030 33056 ft 437 kts 49°
2026-05-07 19:44 22.63469 -64.34753 33058 ft 438 kts 50°
2026-05-07 19:44 22.67062 -64.29439 33058 ft 437 kts 50°
2026-05-07 19:45 22.70190 -64.24810 33059 ft 437 kts 50°
2026-05-07 19:45 22.73792 -64.19473 33059 ft 438 kts 50°
2026-05-07 19:46 22.77370 -64.14160 33058 ft 437 kts 50°
2026-05-07 19:46 22.80960 -64.08825 33059 ft 437 kts 50°
2026-05-07 19:47 22.84523 -64.03526 33062 ft 437 kts 50°
2026-05-07 19:47 22.88116 -63.98210 33058 ft 437 kts 50°
2026-05-07 19:48 22.91696 -63.92899 33058 ft 438 kts 50°
2026-05-07 19:48 22.95301 -63.87531 33060 ft 438 kts 50°
2026-05-07 19:49 22.98867 -63.82219 33061 ft 437 kts 50°
2026-05-07 19:49 23.02436 -63.76889 33060 ft 436 kts 50°
2026-05-07 19:50 23.05988 -63.71581 33061 ft 436 kts 50°
2026-05-07 19:50 23.09561 -63.66235 33059 ft 436 kts 50°
2026-05-07 19:51 23.13103 -63.60928 33060 ft 436 kts 50°
2026-05-07 19:51 23.16660 -63.55595 33061 ft 435 kts 50°
2026-05-07 19:52 23.20196 -63.50287 33060 ft 436 kts 50°
2026-05-07 19:52 23.23756 -63.44939 33059 ft 435 kts 50°
2026-05-07 19:53 23.27286 -63.39628 33058 ft 434 kts 50°
2026-05-07 19:53 23.30823 -63.34301 33057 ft 435 kts 50°
2026-05-07 19:54 23.34337 -63.28999 33054 ft 436 kts 50°
2026-05-07 19:54 23.37880 -63.23649 33054 ft 435 kts 50°
2026-05-07 19:55 23.41414 -63.18303 33060 ft 435 kts 50°
2026-05-07 19:55 23.44955 -63.12942 33057 ft 435 kts 50°
2026-05-07 19:56 23.48453 -63.07625 33055 ft 434 kts 51°
2026-05-07 19:56 23.51655 -63.02042 33059 ft 437 kts 56°
2026-05-07 19:57 23.54620 -62.96240 33059 ft 438 kts 56°
2026-05-07 19:57 23.57552 -62.90452 33060 ft 439 kts 56°
2026-05-07 19:58 23.60510 -62.84597 33055 ft 438 kts 56°
2026-05-07 19:58 23.63440 -62.78795 33064 ft 437 kts 56°
2026-05-07 19:59 23.66365 -62.72997 33067 ft 438 kts 56°
2026-05-07 19:59 23.69299 -62.67169 33062 ft 439 kts 56°
2026-05-07 20:00 23.72224 -62.61353 33056 ft 439 kts 56°
2026-05-07 20:00 23.75172 -62.55485 33059 ft 439 kts 56°
2026-05-07 20:01 23.78088 -62.49671 33064 ft 439 kts 56°
2026-05-07 20:01 23.81022 -62.43818 33061 ft 439 kts 56°
2026-05-07 20:02 23.83934 -62.38000 33067 ft 439 kts 56°
2026-05-07 20:02 23.86868 -62.32124 33063 ft 440 kts 56°
2026-05-07 20:03 23.89805 -62.26247 33062 ft 440 kts 57°
2026-05-07 20:03 23.92748 -62.20346 33064 ft 442 kts 57°
2026-05-07 20:04 23.95667 -62.14489 33063 ft 441 kts 57°
2026-05-07 20:04 23.98602 -62.08585 33062 ft 440 kts 57°
2026-05-07 20:05 24.01522 -62.02711 33061 ft 441 kts 57°
2026-05-07 20:05 24.04431 -61.96845 33058 ft 442 kts 57°
2026-05-07 20:06 24.07369 -61.90918 33057 ft 441 kts 57°
2026-05-07 20:06 24.10293 -61.85012 33057 ft 442 kts 57°
2026-05-07 20:07 24.13208 -61.79119 33058 ft 441 kts 57°
2026-05-07 20:07 24.16106 -61.73248 33060 ft 441 kts 57°
2026-05-07 20:08 24.19014 -61.67352 33058 ft 441 kts 57°